When you browse on this site, cookies collect data to enhance your experience and personalize the content and advertising you see.
Visit our Privacy Policy to learn more. By continuing to use the site, you agree to this use of cookies and data.
  • In Romania
  • List of Countries
  • For 7 days
  • Water Temperature
  • Satellite Maps
  • Weather Map
  • Weather Widgets
  • user-avatar
    Login

    Hourly Weather Kaczowice

    Today, 19 May, Sunday

    Time Temperature Precipitation Wind Pressure Humidity
    00:00 +14°C° 0 mm 2 mps 733 mmHg 92%
    01:00 +13°C° 0 mm 1 mps 733 mmHg 93%
    02:00 +13°C° 0 mm 1 mps 732 mmHg 93%
    03:00 +12°C° 0 mm 1 mps 732 mmHg 94%
    04:00 +12°C° 0 mm 1 mps 732 mmHg 94%
    05:00 +13°C° 0 mm 1 mps 732 mmHg 90%
    06:00 +15°C° 0 mm 1 mps 732 mmHg 87%
    07:00 +16°C° 0 mm 2 mps 732 mmHg 84%
    08:00 +18°C° 0 mm 2 mps 732 mmHg 79%
    09:00 +20°C° 0 mm 2 mps 732 mmHg 73%
    10:00 +21°C° 0 mm 3 mps 732 mmHg 68%
    11:00 +22°C° 0.1 mm 3 mps 732 mmHg 66%
    12:00 +23°C° 0.1 mm 4 mps 732 mmHg 64%
    13:00 +23°C° 0 mm 5 mps 732 mmHg 63%
    14:00 +23°C° 0.6 mm 5 mps 732 mmHg 65%
    15:00 +23°C° 0.6 mm 5 mps 732 mmHg 67%
    16:00 +22°C° 0.6 mm 6 mps 732 mmHg 69%
    17:00 +21°C° 0.2 mm 5 mps 731 mmHg 74%
    18:00 +20°C° 0.2 mm 5 mps 731 mmHg 79%
    19:00 +18°C° 0.2 mm 4 mps 731 mmHg 84%
    20:00 +17°C° 0 mm 4 mps 731 mmHg 86%
    21:00 +16°C° 0 mm 3 mps 731 mmHg 89%
    22:00 +14°C° 0 mm 3 mps 731 mmHg 92%
    23:00 +14°C° 0 mm 3 mps 731 mmHg 92%

    Tomorrow, 20 May, Monday

    Time Temperature Precipitation Wind Pressure Humidity
    00:00 +14°C° 0 mm 2 mps 731 mmHg 92%
    01:00 +14°C° 0 mm 2 mps 730 mmHg 92%
    02:00 +14°C° 0 mm 2 mps 730 mmHg 92%
    03:00 +13°C° 0 mm 2 mps 730 mmHg 93%
    04:00 +13°C° 0 mm 2 mps 729 mmHg 93%
    05:00 +14°C° 0 mm 3 mps 729 mmHg 90%
    06:00 +15°C° 0 mm 4 mps 729 mmHg 86%
    07:00 +17°C° 0 mm 5 mps 729 mmHg 83%
    08:00 +20°C° 0 mm 6 mps 730 mmHg 76%
    09:00 +22°C° 0 mm 6 mps 730 mmHg 69%
    10:00 +23°C° 0 mm 7 mps 730 mmHg 63%
    11:00 +24°C° 0.1 mm 6 mps 730 mmHg 60%
    12:00 +24°C° 0.1 mm 6 mps 730 mmHg 58%
    13:00 +26°C° 0.1 mm 6 mps 730 mmHg 55%
    14:00 +25°C° 0.3 mm 5 mps 730 mmHg 58%
    15:00 +25°C° 0.3 mm 5 mps 730 mmHg 60%
    16:00 +23°C° 0.3 mm 4 mps 730 mmHg 63%
    17:00 +22°C° 0.2 mm 4 mps 730 mmHg 68%
    18:00 +20°C° 0.2 mm 3 mps 730 mmHg 73%
    19:00 +18°C° 0.2 mm 3 mps 730 mmHg 78%
    20:00 +17°C° 0 mm 3 mps 730 mmHg 79%
    21:00 +16°C° 0 mm 2 mps 730 mmHg 79%
    22:00 +15°C° 0 mm 2 mps 730 mmHg 80%
    23:00 +15°C° 0 mm 2 mps 731 mmHg 82%

    Day after tomorrow, 21 May, Tuesday

    Time Temperature Precipitation Wind Pressure Humidity
    00:00 +14°C° 0 mm 2 mps 731 mmHg 83%
    01:00 +13°C° 0 mm 2 mps 731 mmHg 84%
    02:00 +13°C° 0 mm 2 mps 730 mmHg 86%
    03:00 +13°C° 0 mm 1 mps 730 mmHg 87%
    04:00 +12°C° 0 mm 1 mps 730 mmHg 88%
    05:00 +13°C° 0 mm 1 mps 730 mmHg 85%
    06:00 +15°C° 0 mm 1 mps 730 mmHg 82%
    07:00 +16°C° 0 mm 1 mps 730 mmHg 79%
    08:00 +18°C° 0.1 mm 1 mps 730 mmHg 78%
    09:00 +18°C° 0.1 mm 1 mps 730 mmHg 78%
    10:00 +18°C° 0.1 mm 2 mps 730 mmHg 77%
    11:00 +18°C° 0.9 mm 2 mps 730 mmHg 79%
    12:00 +17°C° 0.9 mm 3 mps 730 mmHg 81%
    13:00 +17°C° 0.9 mm 3 mps 730 mmHg 83%
    14:00 +17°C° 0.5 mm 3 mps 729 mmHg 83%
    15:00 +17°C° 0.5 mm 4 mps 729 mmHg 83%
    16:00 +18°C° 0.5 mm 4 mps 729 mmHg 82%
    17:00 +17°C° 1.9 mm 3 mps 729 mmHg 85%
    18:00 +16°C° 1.9 mm 3 mps 729 mmHg 88%
    19:00 +14°C° 1.9 mm 3 mps 729 mmHg 91%
    20:00 +14°C° 1.4 mm 3 mps 729 mmHg 91%
    21:00 +14°C° 1.4 mm 4 mps 729 mmHg 91%
    22:00 +13°C° 1.4 mm 5 mps 729 mmHg 92%
    23:00 +13°C° 0.6 mm 5 mps 729 mmHg 92%

    22 May, Wednesday

    Time Temperature Precipitation Wind Pressure Humidity
    00:00 +13°C° 0.6 mm 5 mps 729 mmHg 92%
    01:00 +13°C° 0.6 mm 5 mps 729 mmHg 93%
    02:00 +13°C° 0.5 mm 5 mps 729 mmHg 93%
    03:00 +13°C° 0.5 mm 5 mps 729 mmHg 93%
    04:00 +12°C° 0.5 mm 4 mps 729 mmHg 93%
    05:00 +13°C° 0.6 mm 4 mps 730 mmHg 93%
    06:00 +13°C° 0.6 mm 4 mps 730 mmHg 93%
    07:00 +13°C° 0.6 mm 4 mps 730 mmHg 93%
    08:00 +14°C° 0.1 mm 4 mps 730 mmHg 92%
    09:00 +14°C° 0.1 mm 4 mps 730 mmHg 91%
    10:00 +15°C° 0.1 mm 4 mps 731 mmHg 90%
    11:00 +16°C° 1 mm 5 mps 731 mmHg 86%
    12:00 +17°C° 1 mm 5 mps 731 mmHg 83%
    13:00 +20°C° 1 mm 5 mps 731 mmHg 79%
    14:00 +19°C° 0.9 mm 6 mps 731 mmHg 80%
    15:00 +19°C° 0.9 mm 6 mps 731 mmHg 82%
    16:00 +17°C° 0.9 mm 6 mps 731 mmHg 84%
    17:00 +16°C° 0.7 mm 6 mps 731 mmHg 86%
    18:00 +15°C° 0.7 mm 5 mps 731 mmHg 89%
    19:00 +14°C° 0.7 mm 5 mps 731 mmHg 92%
    20:00 +14°C° 0.5 mm 4 mps 731 mmHg 93%
    21:00 +14°C° 0.5 mm 4 mps 731 mmHg 94%
    22:00 +13°C° 0.5 mm 4 mps 732 mmHg 96%
    23:00 +13°C° 0.5 mm 4 mps 732 mmHg 95%

    23 May, Thursday

    Time Temperature Precipitation Wind Pressure Humidity
    00:00 +14°C° 0.5 mm 5 mps 732 mmHg 95%
    01:00 +14°C° 0.5 mm 5 mps 732 mmHg 95%
    02:00 +14°C° 0.3 mm 5 mps 732 mmHg 95%
    03:00 +14°C° 0.3 mm 5 mps 732 mmHg 94%
    04:00 +14°C° 0.3 mm 5 mps 732 mmHg 94%
    05:00 +14°C° 0.5 mm 5 mps 732 mmHg 94%
    06:00 +14°C° 0.5 mm 6 mps 733 mmHg 93%
    07:00 +14°C° 0.5 mm 6 mps 733 mmHg 92%
    08:00 +13°C° 0.7 mm 6 mps 734 mmHg 92%
    09:00 +12°C° 0.7 mm 7 mps 734 mmHg 92%
    10:00 +11°C° 0.7 mm 8 mps 735 mmHg 92%
    11:00 +10°C° 0.1 mm 8 mps 735 mmHg 91%
    12:00 +10°C° 0.1 mm 8 mps 735 mmHg 90%
    13:00 +10°C° 0.1 mm 8 mps 736 mmHg 90%
    14:00 +9°C° 0.1 mm 8 mps 736 mmHg 89%
    15:00 +9°C° 0.1 mm 8 mps 736 mmHg 88%
    16:00 +9°C° 0.1 mm 8 mps 736 mmHg 88%
    17:00 +9°C° 0.1 mm 7 mps 736 mmHg 87%
    18:00 +9°C° 0.1 mm 6 mps 737 mmHg 87%
    19:00 +8°C° 0.1 mm 5 mps 737 mmHg 86%
    20:00 +8°C° 0 mm 5 mps 737 mmHg 86%
    21:00 +8°C° 0 mm 5 mps 737 mmHg 87%
    22:00 +8°C° 0 mm 5 mps 738 mmHg 87%
    23:00 +8°C° 0 mm 4 mps 738 mmHg 89%

    24 May, Friday

    Time Temperature Precipitation Wind Pressure Humidity
    00:00 +8°C° 0 mm 4 mps 738 mmHg 90%
    01:00 +8°C° 0 mm 4 mps 738 mmHg 91%
    02:00 +7°C° 0 mm 4 mps 738 mmHg 92%
    03:00 +7°C° 0 mm 3 mps 738 mmHg 93%
    04:00 +7°C° 0 mm 3 mps 738 mmHg 94%
    05:00 +8°C° 0 mm 3 mps 738 mmHg 89%
    06:00 +9°C° 0 mm 3 mps 738 mmHg 84%
    07:00 +10°C° 0 mm 3 mps 738 mmHg 79%
    08:00 +12°C° 0 mm 4 mps 738 mmHg 73%
    09:00 +13°C° 0 mm 4 mps 737 mmHg 68%
    10:00 +15°C° 0 mm 4 mps 737 mmHg 63%
    11:00 +15°C° 0 mm 4 mps 737 mmHg 61%
    12:00 +17°C° 0 mm 4 mps 737 mmHg 60%
    13:00 +18°C° 0 mm 3 mps 736 mmHg 58%
    14:00 +18°C° 0 mm 3 mps 736 mmHg 59%
    15:00 +18°C° 0 mm 3 mps 736 mmHg 60%
    16:00 +18°C° 0 mm 3 mps 735 mmHg 62%
    17:00 +17°C° 0 mm 2 mps 735 mmHg 66%
    18:00 +15°C° 0 mm 1 mps 735 mmHg 71%
    19:00 +14°C° 0 mm 1 mps 735 mmHg 76%
    20:00 +13°C° 0 mm 1 mps 735 mmHg 78%
    21:00 +12°C° 0 mm 1 mps 735 mmHg 80%
    22:00 +11°C° 0 mm 1 mps 735 mmHg 83%
    23:00 +11°C° 0 mm 1 mps 735 mmHg 84%
    Show more